COSMOS 1833 (17589 NORAD) Tracking and Keplerian Element Data

This shows tracking and keplerian element data for the satellite.

Feedback or suggestion? Click here.




ElementValue
Catalog17589
NameCOSMOS 1833
Epoch Orbit89916
Epoch Day12.86502197
Epoch Year2024
RAAN179.7768
Inclination70.9131
Eccentricity0.0022831
Argument of Perigee298.2662
Mean Anonmoly61.6155
Mean Motion14.12933501
Decay Rate8E-07
L11 17589U 87027A 24012.86502197 .00000080 00000+0 68452-4 0 9997
L22 17589 70.9131 179.7768 0022831 298.2662 61.6155 14.12933501899165



Live tracking and technical data element details for COSMOS 1833 (NORAD 17589). COSMOS 1833 can be tracked NOW for your location showing map with azimuth and elevation plus other details from your city location.







IsCatalogInMostPopularTable: catalog: 17589, numindb: 460
Update: records affected: 1



GetName: 17589 COSMOS 1833

Hit Count: updated at: Fri, 19 Apr 2024 11:31:42 GMT